Temperature
-1 -1 -1 -1 -1 -1 -2 -2 -3 -3 -3 -3 -4 -4 -4 -4 -4 -4 -4 -4 -4 -4 -3 -3 -3 -3 -3 -2 -2 -2 -1 -1 -1 -1 -1 -0 0 0 1 1 1 1 1 2
-2 -1 -1 -1 -2 -2 -2 -2 -3 -3 -3 -4 -4 -4 -4 -4 -4 -4 -5 -4 -4 -4 -4 -4 -3 -3 -3 -3 -3 -2 -2 -2 -1 -1 -1 -1 -1 -0 0 0 1 1 1 1
-3 -2 -2 -3 -3 -3 -3 -4 -4 -4 -4 -5 -5 -4 -5 -5 -5 -5 -5 -5 -5 -4 -4 -4 -4 -4 -4 -3 -3 -3 -2 -2 -2 -2 -2 -2 -1 -1 -1 -0 -0 0 0 0
-4 -3 -3 -3 -3 -3 -4 -5 -5 -5 -5 -5 -5 -5 -4 -4 -5 -5 -5 -5 -5 -5 -4 -4 -4 -4 -4 -4 -3 -3 -3 -3 -3 -2 -2 -2 -2 -2 -2 -1 -1 -1 -0 -0
-4 -4 -4 -4 -3 -4 -5 -5 -6 -6 -5 -5 -5 -5 -4 -5 -5 -5 -5 -5 -5 -5 -5 -4 -4 -4 -4 -4 -4 -4 -3 -3 -3 -3 -3 -3 -2 -2 -2 -2 -1 -1 -1 -1
-5 -4 -4 -4 -4 -4 -4 -5 -5 -6 -6 -6 -6 -6 -6 -5 -6 -6 -6 -5 -5 -5 -5 -5 -4 -4 -4 -4 -4 -4 -4 -4 -4 -4 -3 -3 -3 -3 -3 -2 -2 -2 -2 -2
-6 -5 -5 -5 -5 -4 -5 -5 -5 -5 -6 -6 -6 -6 -6 -6 -6 -6 -6 -6 -5 -5 -5 -5 -5 -5 -5 -5 -5 -4 -4 -4 -4 -4 -4 -4 -4 -3 -3 -3 -3 -3 -2 -2
-6 -6 -6 -5 -5 -6 -6 -5 -5 -6 -6 -6 -6 -6 -6 -6 -6 -6 -6 -6 -6 -6 -6 -6 -6 -5 -5 -5 -5 -5 -5 -5 -5 -5 -4 -4 -4 -4 -4 -4 -4 -3 -3 -3
-6 -6 -5 -5 -5 -5 -5 -6 -6 -6 -6 -7 -7 -7 -7 -7 -7 -7 -7 -7 -7 -6 -6 -6 -6 -6 -6 -5 -5 -5 -5 -5 -5 -5 -5 -5 -5 -4 -4 -4 -4 -4 -4 -4
-7 -7 -6 -5 -5 -6 -6 -6 -6 -7 -7 -7 -7 -7 -7 -8 -8 -8 -7 -8 -7 -7 -7 -7 -7 -7 -6 -6 -6 -6 -6 -6 -6 -6 -6 -6 -5 -5 -5 -5 -5 -5 -5 -5
-7 -7 -6 -6 -6 -6 -7 -7 -7 -7 -7 -8 -8 -8 -8 -8 -8 -8 -8 -8 -8 -8 -8 -7 -7 -7 -7 -7 -7 -7 -6 -6 -6 -6 -6 -6 -6 -6 -6 -6 -6 -5 -5 -5
-7 -7 -7 -6 -6 -7 -7 -7 -8 -8 -8 -8 -8 -9 -9 -9 -9 -9 -9 -9 -9 -8 -8 -8 -8 -7 -7 -7 -7 -7 -7 -7 -7 -7 -7 -7 -6 -6 -6 -6 -6 -6 -6 -6
-6 -6 -7 -7 -7 -8 -8 -8 -8 -8 -9 -9 -9 -9 -9 -9 -9 -9 -9 -9 -9 -9 -9 -8 -8 -8 -8 -8 -8 -8 -8 -8 -8 -7 -7 -7 -7 -7 -7 -7 -7 -6 -6 -6
-7 -7 -8 -8 -8 -8 -8 -9 -9 -9 -9 -9 -9 -10 -10 -10 -10 -10 -10 -10 -10 -9 -9 -9 -9 -9 -9 -9 -9 -9 -9 -8 -8 -8 -8 -8 -7 -7 -7 -7 -7 -7 -7 -7
-7 -8 -8 -8 -9 -9 -9 -9 -9 -9 -9 -10 -10 -10 -10 -10 -11 -11 -11 -10 -10 -10 -10 -10 -10 -10 -9 -9 -9 -9 -9 -9 -9 -9 -8 -8 -8 -8 -8 -8 -8 -8 -7 -7
-8 -8 -9 -9 -9 -9 -9 -10 -10 -10 -10 -10 -10 -11 -11 -11 -11 -11 -11 -11 -11 -10 -10 -10 -10 -10 -10 -10 -10 -10 -10 -10 -9 -9 -9 -9 -9 -9 -9 -8 -8 -8 -8 -8
-9 -9 -9 -9 -9 -10 -10 -10 -10 -11 -11 -11 -11 -11 -11 -11 -11 -11 -11 -11 -11 -11 -11 -11 -11 -11 -11 -11 -11 -10 -10 -10 -10 -10 -10 -9 -9 -9 -9 -9 -9 -9 -9 -8
-9 -9 -9 -10 -10 -10 -10 -10 -11 -11 -11 -11 -11 -11 -11 -11 -11 -11 -11 -11 -11 -11 -11 -11 -11 -11 -11 -11 -11 -11 -11 -10 -10 -10 -10 -10 -10 -10 -10 -9 -9 -9 -9 -9
-9 -10 -10 -10 -10 -10 -11 -11 -11 -11 -11 -11 -11 -12 -12 -12 -12 -12 -12 -11 -11 -11 -11 -11 -11 -11 -11 -11 -11 -11 -11 -11 -11 -11 -11 -11 -10 -10 -10 -10 -10 -10 -10 -10
-10 -10 -10 -10 -10 -11 -11 -11 -11 -11 -11 -12 -12 -12 -12 -12 -12 -12 -12 -12 -12 -12 -12 -12 -12 -12 -12 -12 -12 -12 -12 -12 -11 -11 -11 -11 -11 -11 -11 -10 -10 -10 -10 -10
-10 -10 -10 -11 -11 -11 -11 -11 -11 -11 -12 -12 -12 -12 -12 -12 -12 -12 -12 -12 -12 -12 -12 -12 -12 -12 -12 -12 -12 -12 -12 -12 -12 -12 -12 -11 -11 -11 -11 -11 -11 -11 -11 -11
-10 -11 -11 -11 -11 -11 -11 -12 -12 -12 -12 -12 -12 -12 -12 -12 -12 -12 -13 -13 -13 -13 -13 -13 -13 -13 -12 -12 -12 -12 -12 -12 -12 -12 -12 -12 -12 -12 -12 -12 -11 -11 -11 -11
-11 -11 -11 -11 -12 -12 -12 -12 -12 -12 -12 -12 -12 -13 -13 -13 -13 -13 -13 -13 -13 -13 -13 -13 -13 -13 -13 -13 -13 -13 -12 -12 -12 -12 -12 -12 -12 -12 -12 -12 -12 -12 -12 -12
-11 -11 -12 -12 -12 -12 -12 -12 -12 -12 -12 -13 -13 -13 -13 -13 -13 -13 -13 -13 -13 -13 -13 -13 -13 -13 -13 -13 -13 -13 -13 -13 -13 -13 -13 -12 -12 -12 -12 -12 -12 -12 -12 -12
-12 -12 -12 -12 -12 -12 -13 -13 -13 -13 -13 -13 -13 -13 -13 -13 -13 -13 -13 -13 -13 -13 -13 -13 -13 -13 -13 -13 -13 -13 -13 -13 -13 -13 -13 -13 -13 -13 -13 -13 -13 -12 -12 -12
-12 -12 -12 -12 -13 -13 -13 -13 -13 -13 -13 -13 -13 -13 -13 -13 -13 -13 -13 -13 -13 -13 -13 -13 -13 -13 -13 -13 -13 -13 -13 -13 -13 -13 -13 -13 -13 -13 -13 -13 -13 -13 -13 -13
-12 -12 -12 -13 -13 -13 -13 -13 -13 -13 -13 -13 -13 -13 -13 -14 -14 -14 -14 -14 -14 -14 -14 -14 -14 -14 -14 -14 -14 -14 -13 -13 -13 -13 -13 -13 -13 -13 -13 -13 -13 -13 -13 -13
Wind_Speed
7 6 4 5 5 3 4 4 5 6 7 7 6 6 6 6 7 7 8 8 8 8 7 8 8 8 8 7 7 7 6 5 5 5 4 3 2 1 1 0 0 1 1 1
4 4 3 4 5 4 4 4 5 7 7 4 5 4 5 6 6 6 8 9 9 9 8 8 9 9 8 8 7 6 5 5 5 5 4 3 2 1 1 0 0 0 1 1
4 4 3 4 4 3 2 1 2 5 5 5 6 7 5 5 5 6 8 9 9 9 8 8 8 8 8 8 7 6 5 6 5 5 5 4 3 2 1 0 1 0 0 1
2 3 3 4 1 0 1 1 1 2 3 5 6 8 5 3 4 7 8 9 9 8 9 8 7 8 7 7 6 5 5 6 6 5 5 4 3 2 2 1 0 0 0 1
1 2 5 3 2 0 1 3 1 2 5 6 7 5 4 3 5 7 8 8 8 7 7 7 7 7 7 6 6 5 5 6 6 5 5 4 4 3 2 1 1 1 1 1
2 2 5 4 3 2 0 4 1 2 5 6 5 4 5 6 8 9 8 7 7 7 7 7 7 7 6 6 5 5 6 6 6 5 5 4 4 3 2 2 2 2 2 2
3 4 6 4 4 1 2 5 3 3 4 4 4 6 8 9 8 7 8 8 7 7 6 7 7 6 6 6 5 6 6 6 5 5 5 4 3 3 2 2 3 3 3 2
2 3 6 2 2 3 5 3 3 4 5 5 7 8 8 8 8 8 8 8 7 7 7 7 6 6 6 6 5 5 5 5 5 5 5 4 3 3 3 2 2 2 3 3
6 6 4 2 3 3 2 3 4 4 5 5 6 7 8 8 7 7 8 7 7 6 7 7 6 5 6 6 5 5 5 5 4 5 4 4 3 3 3 2 2 2 2 2
4 5 4 3 2 2 2 2 4 4 5 5 6 7 8 7 7 7 7 7 7 7 7 7 7 7 6 5 4 4 4 4 4 4 4 4 3 3 2 2 2 2 1 1
4 5 4 3 2 3 3 3 4 4 4 4 5 6 6 7 7 7 8 7 6 6 7 7 7 7 7 6 4 4 4 4 4 4 3 3 3 3 3 2 2 2 1 1
6 5 4 5 3 2 3 4 4 4 5 5 5 6 6 6 6 6 7 7 7 7 7 7 7 7 7 6 5 3 4 4 3 3 3 3 3 3 5 5 5 5 4 3
4 3 3 4 3 2 2 3 4 4 4 6 5 5 5 6 6 6 7 7 7 8 7 7 6 7 7 6 5 4 3 4 3 3 3 3 2 2 3 4 5 6 6 6
2 0 1 2 2 3 3 3 3 4 4 4 5 5 5 6 6 7 7 7 7 7 6 6 6 7 7 6 5 4 4 4 4 3 3 3 3 2 2 2 3 3 5 6
1 1 3 3 2 3 3 3 4 5 5 5 5 5 5 6 7 7 7 7 7 7 6 6 7 7 7 5 5 5 4 3 3 3 3 3 3 2 2 2 2 2 3 4
2 1 1 2 3 3 4 4 4 6 6 6 5 6 6 6 6 7 7 6 6 7 7 7 7 7 7 5 5 4 3 6 5 3 2 2 2 2 2 2 2 2 2 3
1 2 2 3 4 4 4 4 4 5 6 6 6 6 6 6 6 7 7 6 6 6 7 7 7 7 6 5 4 3 3 4 6 3 2 3 3 2 2 2 2 2 2 3
3 3 3 4 4 5 5 5 5 5 6 6 7 6 5 6 6 7 7 7 7 6 7 7 7 7 5 5 4 3 3 3 3 3 2 3 3 2 2 2 2 2 2 3
2 2 3 3 4 4 4 5 5 5 6 6 5 5 6 6 6 7 6 6 6 7 7 7 10 7 5 6 6 3 3 3 3 3 3 4 3 2 2 2 2 2 2 2
2 2 3 3 3 3 4 5 5 5 5 5 5 5 6 6 6 6 6 5 5 5 6 8 7 5 5 5 6 2 2 3 3 3 3 2 3 3 2 2 2 2 2 2
3 3 4 4 4 4 5 5 5 6 6 5 5 6 6 7 6 5 5 6 6 6 6 8 5 4 4 5 5 2 2 2 2 2 3 3 3 3 2 2 2 2 2 2
3 3 4 4 4 5 5 4 4 5 6 6 6 6 6 6 6 5 4 5 6 9 7 4 4 6 7 6 2 2 2 2 2 2 2 3 3 3 3 3 2 3 3 3
3 4 4 4 5 5 6 5 5 5 5 6 6 5 5 5 4 4 5 5 5 9 7 4 7 9 9 4 2 1 2 2 2 3 3 3 3 3 3 3 3 3 3 3
3 4 4 4 3 4 5 6 5 5 5 5 5 5 5 5 4 4 4 8 10 10 5 7 10 9 7 3 2 2 2 2 2 3 3 3 2 2 2 3 3 3 3 3
3 4 4 4 4 4 5 5 5 5 5 5 5 5 4 4 4 5 5 5 8 8 5 7 9 9 5 2 3 3 2 3 3 2 2 2 2 3 3 3 3 3 3 3
3 3 3 4 4 4 4 4 4 4 5 5 5 4 4 4 4 4 4 5 6 7 5 4 4 5 4 3 3 3 3 3 4 3 3 3 3 3 3 3 4 4 4 4
3 3 3 3 3 3 3 3 4 5 5 5 5 5 5 4 4 4 5 4 4 4 4 4 4 3 3 3 3 3 3 3 3 3 3 3 3 3 4 4 4 4 4 5
Wind_Direction
255 263 253 266 280 262 230 231 235 265 270 289 305 305 315 323 333 350 350 347 343 341 337 336 338 337 335 334 336 338 338 338 333 329 321 327 336 307 275 182 260 210 168 152
281 262 261 280 293 266 251 251 251 271 277 295 305 318 333 338 340 342 337 334 334 333 333 331 331 330 331 332 331 334 336 337 338 337 334 335 335 326 340 5 329 209 178 164
282 307 324 289 283 259 229 246 239 258 279 317 323 327 321 318 329 326 323 325 325 322 318 318 319 321 322 324 328 335 339 341 342 344 340 336 338 355 6 342 33 60 151 158
280 359 259 249 309 316 187 278 333 292 303 308 302 299 285 288 321 321 319 319 317 315 315 317 319 324 323 327 331 337 341 342 341 344 339 337 347 356 348 347 40 62 49 111
200 253 271 289 312 341 247 268 312 295 309 317 319 311 292 321 334 315 306 305 305 306 308 314 318 323 327 330 335 339 339 336 335 336 334 339 344 344 349 8 27 36 74 86
174 224 248 254 284 307 157 270 308 307 300 313 336 323 294 317 321 315 313 313 313 316 316 316 318 325 328 328 334 331 327 326 328 330 333 336 336 342 359 17 22 28 34 51
208 234 262 265 292 26 190 268 294 282 283 291 278 258 284 304 309 310 312 314 319 321 319 315 317 324 323 321 319 318 322 328 331 334 335 337 349 354 10 24 37 39 34 34
189 222 255 268 102 178 234 280 290 286 283 281 279 286 298 306 310 317 321 324 326 324 321 322 325 325 319 317 319 326 329 330 332 338 341 346 0 2 11 30 44 40 33 26
201 220 244 207 202 235 244 270 284 288 294 290 292 298 306 312 314 316 319 322 323 322 322 326 331 331 320 319 324 329 333 332 334 339 345 349 357 0 4 14 23 19 20 10
247 263 259 250 248 289 289 275 289 291 292 297 294 301 309 315 320 321 321 321 325 328 328 328 330 330 323 319 324 328 327 328 333 339 346 354 354 354 355 352 354 351 352 342
253 277 299 265 256 278 290 300 303 304 299 299 301 305 307 312 318 319 323 324 326 325 324 323 327 328 330 330 327 329 326 327 334 337 338 343 348 349 344 337 325 322 307 306
237 235 228 255 261 279 296 304 304 308 310 312 305 302 308 309 312 316 320 323 326 327 326 325 328 330 332 332 330 330 330 332 331 330 332 336 339 347 354 352 353 353 348 344
235 248 238 255 277 294 293 301 308 305 301 308 310 304 308 311 314 318 321 325 325 323 323 324 328 331 333 332 332 329 324 324 326 328 326 326 328 335 340 351 2 4 1 359
239 194 264 270 279 305 306 307 312 313 309 306 309 315 317 317 319 322 321 320 319 322 327 329 330 328 327 328 329 328 324 323 324 316 315 316 317 318 320 331 342 349 351 358
274 238 235 267 289 308 316 321 325 321 320 320 321 322 323 322 320 318 318 321 327 331 331 332 331 327 326 326 328 327 323 317 312 311 315 317 322 323 322 327 332 335 343 348
286 281 256 265 285 303 316 317 311 310 314 315 318 317 316 313 312 315 320 325 327 327 327 326 323 322 326 326 325 323 322 328 330 326 326 327 323 320 322 324 329 328 330 332
220 273 281 286 292 297 297 292 290 296 304 307 309 312 315 318 320 321 321 321 317 313 317 317 317 320 324 323 320 318 319 323 332 332 327 323 319 319 318 315 315 319 323 327
223 238 244 253 272 287 296 298 297 300 301 302 308 313 316 315 312 312 314 318 321 321 321 321 318 317 321 322 318 314 316 319 322 318 318 316 317 316 313 314 315 315 322 326
262 261 270 279 280 281 287 293 296 297 298 302 306 306 302 300 299 302 309 317 322 321 319 318 326 332 325 321 325 310 307 310 320 323 323 325 334 327 317 312 309 311 317 328
304 302 298 297 298 289 289 293 296 298 297 298 299 301 303 302 301 303 307 305 297 291 299 312 320 321 320 318 325 311 306 307 313 317 321 322 320 318 314 313 313 312 316 319
301 305 305 303 303 299 292 293 296 299 303 302 296 295 297 299 298 297 302 309 309 309 312 319 325 315 313 315 321 322 324 320 317 313 312 312 313 313 312 312 315 318 318 320
293 298 299 301 303 305 305 303 297 298 302 303 299 296 300 305 307 304 288 286 300 316 323 312 309 314 322 328 339 338 327 322 317 312 305 302 302 302 304 308 310 313 314 312
290 293 296 297 296 300 307 307 300 298 299 301 303 306 306 305 305 304 307 307 309 316 322 312 318 324 332 353 348 329 319 316 313 309 305 300 296 294 295 299 298 297 297 301
296 298 298 299 301 306 309 309 307 304 298 298 298 300 303 307 306 292 290 308 320 321 320 319 327 332 347 5 334 315 306 303 299 296 298 299 299 298 295 295 296 296 293 295
297 297 298 303 305 301 300 306 310 310 311 310 307 304 299 291 290 300 302 307 317 324 321 324 332 339 345 320 312 304 299 293 291 297 300 306 300 294 290 288 286 287 288 289
300 300 295 290 288 293 298 302 305 308 311 312 312 309 307 306 302 303 305 308 311 323 325 315 317 325 320 309 304 303 300 305 315 315 297 292 291 290 287 286 286 283 281 282
304 302 303 307 305 301 298 298 300 305 309 307 307 309 311 313 312 312 311 311 312 314 312 313 313 311 309 308 305 303 300 297 296 295 293 289 286 285 285 284 284 282 281 279
Height
1540 1537 1536 1536 1535 1534 1536 1537 1538 1534 1532 1529 1527 1525 1523 1520 1517 1514 1511 1508 1505 1502 1499 1496 1493 1489 1486 1483 1480 1478 1476 1474 1472 1470 1469 1467 1467 1467 1467 1467 1467 1468 1469 1470
1539 1535 1534 1534 1534 1532 1532 1533 1533 1531 1530 1528 1526 1524 1521 1519 1516 1513 1511 1508 1505 1501 1498 1495 1492 1488 1485 1482 1479 1477 1475 1473 1471 1469 1467 1466 1464 1464 1464 1464 1465 1466 1466 1467
1542 1537 1535 1538 1535 1532 1532 1532 1533 1532 1532 1528 1526 1523 1521 1518 1515 1513 1510 1507 1504 1501 1497 1494 1491 1488 1484 1481 1478 1476 1473 1471 1470 1468 1466 1464 1463 1462 1462 1462 1462 1463 1463 1464
1544 1542 1543 1539 1533 1532 1532 1533 1532 1531 1530 1528 1526 1522 1520 1518 1515 1512 1509 1506 1502 1499 1496 1492 1489 1486 1483 1480 1477 1475 1472 1470 1468 1467 1465 1463 1461 1460 1460 1460 1460 1461 1461 1462
1545 1546 1541 1537 1533 1533 1534 1533 1531 1530 1528 1526 1524 1520 1517 1516 1514 1511 1508 1504 1501 1497 1494 1491 1488 1485 1482 1479 1476 1473 1471 1469 1467 1466 1464 1462 1461 1460 1459 1459 1459 1459 1460 1460
1546 1544 1540 1536 1532 1531 1533 1532 1530 1528 1527 1525 1523 1522 1517 1514 1511 1508 1505 1502 1498 1495 1492 1489 1486 1483 1480 1477 1474 1472 1470 1468 1467 1465 1463 1461 1460 1460 1459 1458 1458 1458 1458 1459
1546 1546 1540 1534 1531 1530 1536 1532 1528 1526 1525 1524 1522 1521 1516 1512 1509 1506 1502 1499 1496 1493 1490 1487 1484 1481 1478 1476 1473 1471 1470 1468 1466 1465 1463 1461 1460 1459 1458 1457 1457 1457 1457 1458
1546 1547 1541 1531 1530 1532 1531 1527 1526 1525 1523 1521 1519 1516 1513 1510 1507 1503 1499 1496 1493 1490 1487 1484 1482 1479 1476 1474 1472 1471 1469 1467 1465 1463 1462 1461 1460 1459 1458 1457 1456 1456 1456 1457
1539 1536 1530 1528 1528 1528 1527 1526 1524 1522 1521 1519 1516 1513 1510 1507 1504 1500 1497 1494 1491 1488 1485 1482 1480 1478 1475 1473 1471 1469 1467 1466 1464 1463 1462 1461 1459 1458 1457 1457 1456 1456 1456 1456
1533 1529 1527 1527 1526 1526 1525 1523 1522 1520 1518 1516 1513 1510 1507 1504 1501 1498 1495 1492 1488 1485 1482 1480 1478 1476 1474 1471 1469 1468 1466 1464 1463 1462 1461 1460 1459 1458 1457 1457 1456 1455 1455 1455
1530 1527 1525 1524 1524 1523 1522 1520 1519 1517 1515 1513 1510 1507 1504 1501 1498 1495 1492 1489 1486 1483 1480 1478 1476 1474 1472 1470 1468 1466 1465 1463 1462 1461 1460 1459 1458 1458 1457 1456 1456 1456 1455 1455
1526 1523 1524 1522 1521 1521 1519 1518 1516 1514 1511 1510 1507 1504 1501 1498 1495 1492 1489 1486 1483 1480 1478 1476 1474 1472 1470 1468 1466 1465 1463 1462 1461 1460 1459 1458 1457 1456 1456 1456 1455 1455 1454 1453
1521 1521 1520 1519 1519 1518 1517 1515 1513 1511 1509 1506 1504 1501 1498 1495 1493 1490 1487 1484 1481 1478 1476 1473 1471 1469 1467 1466 1464 1463 1462 1461 1460 1459 1458 1457 1456 1455 1454 1454 1453 1453 1452 1451
1519 1519 1518 1517 1516 1515 1514 1512 1510 1508 1506 1503 1501 1498 1495 1492 1489 1487 1484 1481 1478 1475 1473 1471 1468 1467 1465 1464 1462 1461 1460 1459 1458 1457 1456 1456 1455 1454 1453 1452 1451 1450 1450 1449
1517 1517 1516 1515 1514 1513 1511 1509 1507 1505 1503 1500 1498 1495 1492 1489 1486 1484 1481 1479 1476 1473 1470 1468 1466 1465 1463 1462 1460 1459 1458 1457 1456 1455 1455 1454 1453 1452 1452 1451 1450 1449 1448 1448
1515 1514 1513 1512 1511 1510 1508 1506 1504 1502 1500 1497 1495 1492 1490 1487 1484 1481 1479 1476 1473 1470 1468 1466 1464 1463 1461 1460 1458 1457 1456 1455 1454 1454 1453 1452 1451 1450 1450 1449 1448 1447 1446 1446
1513 1511 1511 1510 1509 1507 1506 1504 1502 1499 1497 1494 1492 1489 1487 1484 1481 1479 1476 1474 1471 1469 1466 1464 1462 1461 1459 1458 1456 1455 1454 1453 1453 1452 1451 1450 1449 1448 1448 1447 1446 1445 1445 1444
1511 1510 1509 1508 1506 1504 1503 1501 1499 1496 1494 1492 1489 1487 1484 1481 1479 1476 1474 1471 1469 1467 1465 1462 1460 1459 1457 1456 1454 1453 1452 1451 1450 1450 1448 1448 1447 1446 1446 1445 1444 1443 1443 1442
1509 1508 1506 1505 1504 1502 1500 1498 1495 1493 1491 1489 1486 1484 1481 1479 1476 1474 1471 1469 1466 1463 1462 1460 1458 1457 1455 1454 1453 1451 1450 1449 1448 1447 1446 1446 1445 1444 1443 1443 1442 1441 1440 1440
1506 1505 1504 1502 1501 1499 1497 1495 1492 1490 1488 1486 1483 1481 1478 1476 1474 1471 1469 1466 1464 1462 1460 1458 1456 1455 1453 1452 1451 1449 1448 1447 1446 1445 1444 1443 1442 1442 1441 1440 1440 1439 1438 1437
1504 1503 1501 1500 1498 1496 1494 1492 1489 1487 1485 1483 1480 1478 1475 1473 1471 1468 1466 1464 1462 1460 1458 1456 1454 1452 1451 1449 1448 1447 1446 1445 1444 1443 1442 1441 1440 1439 1438 1438 1437 1436 1436 1435
1502 1500 1499 1497 1495 1493 1491 1489 1486 1484 1482 1479 1477 1475 1472 1470 1468 1466 1464 1462 1459 1457 1455 1453 1452 1450 1449 1448 1446 1445 1444 1442 1441 1440 1439 1438 1437 1437 1436 1435 1435 1434 1433 1433
1499 1498 1496 1494 1492 1490 1488 1486 1484 1481 1479 1476 1474 1472 1469 1467 1465 1463 1461 1459 1457 1455 1453 1451 1450 1448 1447 1445 1444 1442 1441 1440 1439 1438 1437 1436 1435 1434 1433 1433 1432 1431 1431 1430
1497 1495 1493 1491 1490 1487 1485 1483 1481 1479 1476 1474 1472 1469 1467 1465 1462 1461 1459 1456 1454 1453 1451 1449 1447 1446 1444 1443 1441 1440 1439 1437 1436 1435 1434 1433 1433 1432 1431 1430 1429 1429 1428 1427
1494 1492 1491 1489 1487 1485 1483 1480 1478 1476 1474 1471 1469 1467 1465 1463 1460 1458 1456 1454 1452 1450 1448 1447 1445 1443 1442 1440 1439 1438 1436 1435 1434 1433 1432 1431 1430 1429 1428 1427 1426 1426 1425 1424
1492 1490 1488 1486 1484 1482 1480 1478 1476 1473 1471 1469 1467 1465 1462 1460 1458 1456 1454 1452 1450 1448 1446 1445 1443 1441 1440 1438 1437 1435 1434 1433 1432 1431 1429 1428 1427 1426 1425 1424 1424 1423 1422 1421
1489 1487 1485 1484 1482 1480 1478 1476 1473 1471 1469 1467 1464 1462 1460 1458 1456 1454 1452 1450 1448 1446 1444 1443 1441 1439 1438 1436 1435 1433 1432 1431 1429 1428 1427 1426 1425 1424 1423 1421 1420 1419 1418 1417